Time,TemperatureF,DewpointF,PressureIn,WindDirection,WindDirectionDegrees,WindSpeedMPH,WindSpeedGustMPH,Humidity,HourlyPrecipIn,Conditions,Clouds,dailyrainin,SoftwareType,DateUTC
2013-08-09 00:00:00,72.6,72.6,29.92,North,0,0.1,1.0,100,0.00,,,0.00,meteo_script,2013-08-09 04:00:00,
2013-08-09 00:05:00,72.5,72.5,29.92,North,0,0.0,0.0,100,0.00,,,0.00,meteo_script,2013-08-09 04:05:00,
2013-08-09 00:10:00,72.4,72.4,29.92,North,0,0.0,0.0,100,0.00,,,0.00,meteo_script,2013-08-09 04:10:00,
2013-08-09 00:15:00,72.4,72.4,29.92,SSE,155,0.0,1.0,100,0.00,,,0.00,meteo_script,2013-08-09 04:15:00,
2013-08-09 00:20:00,72.3,72.3,29.92,North,0,0.0,0.0,100,0.00,,,0.00,meteo_script,2013-08-09 04:20:00,
2013-08-09 00:25:00,72.2,72.2,29.92,North,0,0.0,0.0,100,0.00,,,0.00,meteo_script,2013-08-09 04:25:00,
2013-08-09 00:35:00,72.1,72.1,29.92,North,0,0.0,0.0,100,0.00,,,0.00,meteo_script,2013-08-09 04:35:00,
2013-08-09 00:40:00,72.1,72.1,29.92,North,0,0.0,0.0,100,0.00,,,0.00,meteo_script,2013-08-09 04:40:00,
2013-08-09 00:45:00,72.0,72.0,29.92,North,0,0.0,0.0,100,0.00,,,0.00,meteo_script,2013-08-09 04:45:00,
2013-08-09 00:55:00,72.0,72.0,29.92,North,0,0.0,0.0,100,0.00,,,0.00,meteo_script,2013-08-09 04:55:00,
2013-08-09 01:00:00,71.9,71.9,29.92,North,0,0.0,2.0,100,0.00,,,0.00,meteo_script,2013-08-09 05:00:00,
2013-08-09 01:10:00,71.8,71.8,29.92,North,0,0.0,0.0,100,0.00,,,0.00,meteo_script,2013-08-09 05:10:00,
2013-08-09 01:15:00,71.8,71.8,29.92,North,0,0.0,1.0,100,0.00,,,0.00,meteo_script,2013-08-09 05:15:00,
2013-08-09 01:20:00,71.8,71.8,29.92,SSE,158,0.0,1.0,100,0.00,,,0.00,meteo_script,2013-08-09 05:20:00,
2013-08-09 01:30:00,71.7,71.7,29.91,SSW,210,0.2,2.0,100,0.00,,,0.00,meteo_script,2013-08-09 05:30:00,
2013-08-09 01:35:00,71.7,71.7,29.92,North,0,0.2,1.0,100,0.00,,,0.00,meteo_script,2013-08-09 05:35:00,
2013-08-09 01:45:00,71.7,71.7,29.91,SSW,210,0.1,3.0,100,0.00,,,0.00,meteo_script,2013-08-09 05:45:00,
2013-08-09 01:50:00,71.7,71.7,29.91,SSW,211,0.3,3.0,100,0.00,,,0.00,meteo_script,2013-08-09 05:50:00,
2013-08-09 01:55:00,71.7,71.7,29.91,SSW,211,0.3,1.0,100,0.00,,,0.00,meteo_script,2013-08-09 05:55:00,
2013-08-09 02:05:00,71.7,71.7,29.91,SSW,210,0.2,2.0,100,0.00,,,0.00,meteo_script,2013-08-09 06:05:00,
2013-08-09 02:10:00,71.7,71.7,29.91,SSW,210,0.2,1.0,100,0.00,,,0.00,meteo_script,2013-08-09 06:10:00,
2013-08-09 02:20:00,71.7,71.7,29.90,SW,214,0.2,3.0,100,0.00,,,0.00,meteo_script,2013-08-09 06:20:00,
2013-08-09 02:25:00,71.6,71.6,29.90,North,0,0.1,1.0,100,0.00,,,0.00,meteo_script,2013-08-09 06:25:00,
2013-08-09 02:30:00,71.6,71.6,29.90,North,0,0.1,1.0,100,0.00,,,0.00,meteo_script,2013-08-09 06:30:00,
2013-08-09 02:40:00,71.5,71.5,29.90,SW,214,0.1,2.0,100,0.00,,,0.00,meteo_script,2013-08-09 06:40:00,
2013-08-09 02:45:00,71.5,71.5,29.90,North,0,0.1,2.0,100,0.00,,,0.00,meteo_script,2013-08-09 06:45:00,
2013-08-09 02:50:00,71.5,71.5,29.90,West,263,0.1,3.0,100,0.00,,,0.00,meteo_script,2013-08-09 06:50:00,
2013-08-09 02:55:00,71.5,71.5,29.90,North,0,0.1,0.0,100,0.00,,,0.00,meteo_script,2013-08-09 06:55:00,
2013-08-09 03:00:00,71.4,71.4,29.90,West,261,0.0,1.0,100,0.00,,,0.00,meteo_script,2013-08-09 07:00:00,
2013-08-09 03:05:00,71.4,71.4,29.90,West,261,0.1,1.0,100,0.00,,,0.00,meteo_script,2013-08-09 07:05:00,
2013-08-09 03:15:00,71.4,71.4,29.90,North,0,0.0,1.0,100,0.00,,,0.00,meteo_script,2013-08-09 07:15:00,
2013-08-09 03:20:00,71.4,71.4,29.89,North,0,0.0,0.0,100,0.00,,,0.00,meteo_script,2013-08-09 07:20:00,
2013-08-09 03:25:00,71.4,71.4,29.89,North,0,0.0,1.0,100,0.00,,,0.00,meteo_script,2013-08-09 07:25:00,
2013-08-09 03:35:00,71.4,71.4,29.89,North,0,0.2,1.0,100,0.00,,,0.00,meteo_script,2013-08-09 07:35:00,
2013-08-09 03:40:00,71.4,71.4,29.89,South,176,0.1,1.0,100,0.00,,,0.00,meteo_script,2013-08-09 07:40:00,
2013-08-09 03:45:00,71.5,71.5,29.89,South,176,0.1,1.0,100,0.00,,,0.00,meteo_script,2013-08-09 07:45:00,
2013-08-09 03:50:00,71.4,71.4,29.89,North,0,0.1,1.0,100,0.00,,,0.00,meteo_script,2013-08-09 07:50:00,
2013-08-09 04:00:00,71.4,71.4,29.88,North,0,0.1,1.0,100,0.00,,,0.00,meteo_script,2013-08-09 08:00:00,
2013-08-09 04:05:00,71.4,71.4,29.88,South,176,0.2,3.0,100,0.00,,,0.00,meteo_script,2013-08-09 08:05:00,
2013-08-09 04:10:00,71.4,71.4,29.88,South,176,0.3,2.0,100,0.00,,,0.00,meteo_script,2013-08-09 08:10:00,
2013-08-09 04:20:00,71.4,71.4,29.88,South,182,0.3,2.0,100,0.00,,,0.00,meteo_script,2013-08-09 08:20:00,
2013-08-09 04:25:00,71.4,71.4,29.88,South,184,0.3,2.0,100,0.00,,,0.00,meteo_script,2013-08-09 08:25:00,
2013-08-09 04:35:00,71.4,71.4,29.89,South,184,0.2,2.0,100,0.00,,,0.00,meteo_script,2013-08-09 08:35:00,
2013-08-09 04:40:00,71.4,71.4,29.88,North,0,0.2,2.0,100,0.00,,,0.00,meteo_script,2013-08-09 08:40:00,
2013-08-09 04:50:00,71.4,71.4,29.88,SW,222,0.1,1.0,100,0.00,,,0.00,meteo_script,2013-08-09 08:50:00,
2013-08-09 05:00:00,71.3,71.3,29.88,WSW,247,0.4,3.0,100,0.00,,,0.00,meteo_script,2013-08-09 09:00:00,
2013-08-09 05:10:00,71.4,71.4,29.88,SSW,211,0.5,5.0,100,0.00,,,0.00,meteo_script,2013-08-09 09:10:00,
2013-08-09 05:15:00,71.4,71.4,29.88,SSW,213,0.4,2.0,100,0.00,,,0.00,meteo_script,2013-08-09 09:15:00,
2013-08-09 05:25:00,71.5,71.5,29.87,SSW,213,0.2,2.0,100,0.00,,,0.00,meteo_script,2013-08-09 09:25:00,
2013-08-09 05:35:00,71.5,71.5,29.87,SW,226,0.2,2.0,100,0.00,,,0.00,meteo_script,2013-08-09 09:35:00,
2013-08-09 05:40:00,71.5,71.5,29.87,South,188,0.2,2.0,100,0.00,,,0.00,meteo_script,2013-08-09 09:40:00,
2013-08-09 05:45:00,71.5,71.5,29.87,SSW,211,0.3,4.0,100,0.00,,,0.00,meteo_script,2013-08-09 09:45:00,
2013-08-09 05:55:00,71.5,71.5,29.88,SSW,211,0.2,2.0,100,0.00,,,0.00,meteo_script,2013-08-09 09:55:00,
2013-08-09 06:00:00,71.5,71.5,29.88,SW,215,0.2,3.0,100,0.00,,,0.00,meteo_script,2013-08-09 10:00:00,
2013-08-09 06:05:00,71.4,71.4,29.88,North,0,0.1,1.0,100,0.00,,,0.00,meteo_script,2013-08-09 10:05:00,
2013-08-09 06:15:00,71.3,71.3,29.87,SW,215,0.1,1.0,100,0.00,,,0.00,meteo_script,2013-08-09 10:15:00,
2013-08-09 06:20:00,71.3,71.3,29.88,SW,223,0.1,3.0,100,0.00,,,0.00,meteo_script,2013-08-09 10:20:00,
2013-08-09 06:30:00,71.2,71.2,29.88,SW,231,0.1,1.0,100,0.00,,,0.00,meteo_script,2013-08-09 10:30:00,
2013-08-09 06:35:00,71.2,71.2,29.88,North,0,0.1,1.0,100,0.00,,,0.00,meteo_script,2013-08-09 10:35:00,
2013-08-09 06:45:00,71.2,71.2,29.88,SW,231,0.1,1.0,100,0.00,,,0.00,meteo_script,2013-08-09 10:45:00,
2013-08-09 06:50:00,71.2,71.2,29.88,North,0,0.1,2.0,100,0.00,,,0.00,meteo_script,2013-08-09 10:50:00,
2013-08-09 06:55:00,71.2,71.2,29.88,SSE,165,0.2,2.0,100,0.00,,,0.00,meteo_script,2013-08-09 10:55:00,
2013-08-09 07:05:00,71.3,71.3,29.88,North,0,0.1,1.0,100,0.00,,,0.00,meteo_script,2013-08-09 11:05:00,
2013-08-09 07:10:00,71.3,71.3,29.88,SW,228,0.1,2.0,100,0.00,,,0.00,meteo_script,2013-08-09 11:10:00,
2013-08-09 07:15:00,71.2,71.2,29.88,North,0,0.1,2.0,100,0.00,,,0.00,meteo_script,2013-08-09 11:15:00,
2013-08-09 07:20:00,71.2,71.2,29.88,SW,228,0.1,1.0,100,0.00,,,0.00,meteo_script,2013-08-09 11:20:00,
2013-08-09 07:25:00,71.2,71.1,29.88,SW,227,0.1,2.0,100,0.00,,,0.00,meteo_script,2013-08-09 11:25:00,
2013-08-09 07:30:00,71.1,71.1,29.88,SW,227,0.1,1.0,100,0.00,,,0.00,meteo_script,2013-08-09 11:30:00,
2013-08-09 07:40:00,71.0,71.0,29.88,North,0,0.0,1.0,100,0.00,,,0.00,meteo_script,2013-08-09 11:40:00,
2013-08-09 07:45:00,71.0,71.0,29.88,North,0,0.1,3.0,100,0.01,,,0.01,meteo_script,2013-08-09 11:45:00,
2013-08-09 07:50:00,71.0,71.0,29.88,North,0,0.1,0.0,100,0.01,,,0.01,meteo_script,2013-08-09 11:50:00,
2013-08-09 08:00:00,70.9,70.9,29.88,North,0,0.1,0.0,100,0.02,,,0.02,meteo_script,2013-08-09 12:00:00,
2013-08-09 08:05:00,70.9,70.9,29.88,North,0,0.0,0.0,100,0.03,,,0.03,meteo_script,2013-08-09 12:05:00,
2013-08-09 08:15:00,70.9,70.9,29.88,North,0,0.0,1.0,100,0.05,,,0.05,meteo_script,2013-08-09 12:15:00,
2013-08-09 08:20:00,70.9,70.9,29.87,North,0,0.0,0.0,100,0.05,,,0.05,meteo_script,2013-08-09 12:20:00,
2013-08-09 08:30:00,70.8,70.8,29.87,North,0,0.0,0.0,100,0.07,,,0.07,meteo_script,2013-08-09 12:30:00,
2013-08-09 08:35:00,70.8,70.8,29.87,North,0,0.0,0.0,100,0.08,,,0.08,meteo_script,2013-08-09 12:35:00,
2013-08-09 08:40:00,70.9,70.9,29.87,North,0,0.0,1.0,100,0.08,,,0.08,meteo_script,2013-08-09 12:40:00,
2013-08-09 08:50:00,70.9,70.9,29.87,North,0,0.0,1.0,100,0.09,,,0.10,meteo_script,2013-08-09 12:50:00,
2013-08-09 08:55:00,71.0,71.0,29.87,North,0,0.0,0.0,100,0.08,,,0.10,meteo_script,2013-08-09 12:55:00,
2013-08-09 09:05:00,71.0,71.0,29.86,SW,229,0.1,1.0,100,0.08,,,0.11,meteo_script,2013-08-09 13:05:00,
2013-08-09 09:10:00,71.0,71.0,29.86,North,0,0.0,1.0,100,0.08,,,0.12,meteo_script,2013-08-09 13:10:00,
2013-08-09 09:20:00,71.1,71.1,29.86,SW,229,0.0,1.0,100,0.09,,,0.14,meteo_script,2013-08-09 13:20:00,
2013-08-09 09:25:00,71.1,71.1,29.85,North,0,0.0,1.0,100,0.09,,,0.15,meteo_script,2013-08-09 13:25:00,
2013-08-09 09:30:00,71.1,71.1,29.85,North,0,0.1,1.0,100,0.09,,,0.16,meteo_script,2013-08-09 13:30:00,
2013-08-09 09:40:00,71.2,71.2,29.85,SW,229,0.3,2.0,100,0.10,,,0.18,meteo_script,2013-08-09 13:40:00,
2013-08-09 09:45:00,71.2,71.2,29.85,SSE,162,0.5,3.0,100,0.10,,,0.19,meteo_script,2013-08-09 13:45:00,
2013-08-09 09:55:00,71.2,71.2,29.85,South,169,0.9,4.0,100,0.12,,,0.22,meteo_script,2013-08-09 13:55:00,
2013-08-09 10:00:00,71.2,71.2,29.84,SSW,192,1.1,6.0,100,0.14,,,0.24,meteo_script,2013-08-09 14:00:00,
2013-08-09 10:05:00,71.3,71.3,29.84,SSE,154,1.1,4.0,100,0.13,,,0.24,meteo_script,2013-08-09 14:05:00,
2013-08-09 10:15:00,71.5,71.5,29.83,SSE,154,0.3,3.0,100,0.12,,,0.25,meteo_script,2013-08-09 14:15:00,
2013-08-09 10:20:00,71.6,71.6,29.83,SSE,154,0.2,2.0,100,0.11,,,0.25,meteo_script,2013-08-09 14:20:00,
2013-08-09 10:30:00,71.9,71.9,29.82,North,0,0.2,2.0,100,0.09,,,0.25,meteo_script,2013-08-09 14:30:00,
2013-08-09 10:35:00,72.0,72.0,29.82,SSE,154,0.2,1.0,100,0.09,,,0.25,meteo_script,2013-08-09 14:35:00,
2013-08-09 10:45:00,71.9,71.9,29.82,SSE,154,0.3,2.0,100,0.06,,,0.25,meteo_script,2013-08-09 14:45:00,
2013-08-09 10:55:00,71.7,71.7,29.82,South,176,0.3,2.0,100,0.04,,,0.26,meteo_script,2013-08-09 14:55:00,
2013-08-09 11:05:00,71.8,71.8,29.82,WSW,247,0.3,2.0,100,0.02,,,0.26,meteo_script,2013-08-09 15:05:00,
2013-08-09 11:10:00,71.7,71.7,29.81,West,259,0.4,3.0,100,0.01,,,0.26,meteo_script,2013-08-09 15:10:00,
2013-08-09 11:20:00,71.7,71.6,29.81,WNW,286,0.2,3.0,100,0.01,,,0.26,meteo_script,2013-08-09 15:20:00,
2013-08-09 11:25:00,71.6,71.6,29.81,NE,49,0.4,3.0,100,0.02,,,0.27,meteo_script,2013-08-09 15:25:00,
2013-08-09 11:30:00,71.6,71.6,29.80,East,82,0.5,3.0,100,0.02,,,0.27,meteo_script,2013-08-09 15:30:00,
2013-08-09 11:40:00,71.6,71.6,29.80,South,171,0.6,5.0,100,0.03,,,0.28,meteo_script,2013-08-09 15:40:00,
2013-08-09 11:45:00,71.6,71.6,29.80,WSW,245,0.7,4.0,100,0.03,,,0.28,meteo_script,2013-08-09 15:45:00,
2013-08-09 11:55:00,71.8,71.8,29.79,SSW,199,0.5,3.0,100,0.03,,,0.29,meteo_script,2013-08-09 15:55:00,
2013-08-09 12:00:00,71.8,71.8,29.79,WSW,255,0.4,2.0,100,0.04,,,0.30,meteo_script,2013-08-09 16:00:00,
2013-08-09 12:05:00,71.9,71.9,29.79,SSE,164,0.5,4.0,100,0.04,,,0.30,meteo_script,2013-08-09 16:05:00,
2013-08-09 12:15:00,72.0,72.0,29.79,WSW,253,0.8,3.0,100,0.06,,,0.32,meteo_script,2013-08-09 16:15:00,
2013-08-09 12:20:00,72.1,72.1,29.78,South,173,0.8,4.0,100,0.06,,,0.32,meteo_script,2013-08-09 16:20:00,
2013-08-09 12:30:00,72.2,72.2,29.78,SW,223,0.6,3.0,100,0.07,,,0.34,meteo_script,2013-08-09 16:30:00,
2013-08-09 12:35:00,72.2,72.2,29.78,South,180,0.7,4.0,100,0.06,,,0.34,meteo_script,2013-08-09 16:35:00,
2013-08-09 12:45:00,72.1,72.1,29.77,South,189,0.6,3.0,100,0.08,,,0.36,meteo_script,2013-08-09 16:45:00,
2013-08-09 12:50:00,72.2,72.2,29.77,SSE,163,0.6,3.0,100,0.07,,,0.36,meteo_script,2013-08-09 16:50:00,
2013-08-09 12:55:00,72.2,72.2,29.77,SW,221,0.5,4.0,100,0.07,,,0.36,meteo_script,2013-08-09 16:55:00,
2013-08-09 13:05:00,72.1,72.1,29.76,SE,141,0.3,3.0,100,0.08,,,0.38,meteo_script,2013-08-09 17:05:00,
2013-08-09 13:10:00,72.1,72.1,29.76,North,0,0.3,2.0,100,0.09,,,0.40,meteo_script,2013-08-09 17:10:00,
2013-08-09 13:20:00,72.0,72.0,29.75,SW,224,0.3,3.0,100,0.11,,,0.43,meteo_script,2013-08-09 17:20:00,
2013-08-09 13:25:00,71.9,71.9,29.75,WSW,245,0.1,1.0,100,0.12,,,0.45,meteo_script,2013-08-09 17:25:00,
2013-08-09 13:30:00,71.9,71.9,29.75,ESE,108,0.2,3.0,100,0.12,,,0.46,meteo_script,2013-08-09 17:30:00,
2013-08-09 13:40:00,71.8,71.8,29.74,SW,217,0.2,2.0,100,0.14,,,0.49,meteo_script,2013-08-09 17:40:00,
2013-08-09 13:45:00,71.8,71.8,29.74,SSW,197,0.3,2.0,100,0.16,,,0.52,meteo_script,2013-08-09 17:45:00,
2013-08-09 13:55:00,71.7,71.7,29.73,SE,144,0.4,3.0,100,0.21,,,0.57,meteo_script,2013-08-09 17:55:00,
2013-08-09 14:00:00,71.7,71.7,29.74,South,183,0.8,4.0,100,0.22,,,0.59,meteo_script,2013-08-09 18:00:00,
2013-08-09 14:05:00,71.5,71.5,29.74,SE,143,1.1,4.0,100,0.28,,,0.66,meteo_script,2013-08-09 18:05:00,
2013-08-09 14:15:00,71.1,71.1,29.73,SE,146,1.6,6.0,100,0.36,,,0.78,meteo_script,2013-08-09 18:15:00,
2013-08-09 14:20:00,70.9,70.9,29.72,South,183,1.7,5.0,100,0.38,,,0.81,meteo_script,2013-08-09 18:20:00,
2013-08-09 14:30:00,70.6,70.6,29.72,SE,134,1.4,5.0,100,0.38,,,0.84,meteo_script,2013-08-09 18:30:00,
2013-08-09 14:35:00,70.5,70.5,29.71,South,189,1.1,5.0,100,0.39,,,0.86,meteo_script,2013-08-09 18:35:00,
2013-08-09 14:45:00,70.3,70.3,29.70,SSW,209,1.0,5.0,100,0.37,,,0.89,meteo_script,2013-08-09 18:45:00,
2013-08-09 14:50:00,70.3,70.3,29.69,South,169,1.0,4.0,100,0.36,,,0.90,meteo_script,2013-08-09 18:50:00,
2013-08-09 15:00:00,70.5,70.5,29.69,SSW,194,1.1,5.0,100,0.32,,,0.91,meteo_script,2013-08-09 19:00:00,
2013-08-09 15:05:00,70.5,70.5,29.68,SW,234,0.9,3.0,100,0.25,,,0.91,meteo_script,2013-08-09 19:05:00,
2013-08-09 15:10:00,70.6,70.6,29.68,SW,218,0.9,4.0,100,0.18,,,0.92,meteo_script,2013-08-09 19:10:00,
2013-08-09 15:20:00,70.6,70.6,29.67,South,169,1.3,4.0,100,0.11,,,0.92,meteo_script,2013-08-09 19:20:00,
2013-08-09 15:25:00,70.7,70.7,29.67,WSW,237,1.0,4.0,100,0.09,,,0.92,meteo_script,2013-08-09 19:25:00,
2013-08-09 15:35:00,70.9,70.9,29.66,ESE,121,1.3,6.0,100,0.06,,,0.92,meteo_script,2013-08-09 19:35:00,
2013-08-09 15:40:00,71.0,71.0,29.66,South,170,1.1,4.0,100,0.04,,,0.92,meteo_script,2013-08-09 19:40:00,
2013-08-09 15:45:00,71.0,71.0,29.66,South,187,1.1,5.0,100,0.03,,,0.92,meteo_script,2013-08-09 19:45:00,
2013-08-09 15:55:00,71.5,71.5,29.66,South,169,1.6,5.0,100,0.02,,,0.92,meteo_script,2013-08-09 19:55:00,
2013-08-09 16:00:00,71.8,71.8,29.66,WSW,243,2.1,7.0,100,0.01,,,0.92,meteo_script,2013-08-09 20:00:00,
2013-08-09 16:10:00,72.0,72.0,29.66,SW,227,1.2,4.0,100,0.00,,,0.92,meteo_script,2013-08-09 20:10:00,
2013-08-09 16:15:00,72.0,72.0,29.66,SSW,196,1.1,4.0,100,0.00,,,0.92,meteo_script,2013-08-09 20:15:00,
2013-08-09 16:20:00,72.0,71.9,29.66,SSW,196,0.9,2.0,100,0.00,,,0.92,meteo_script,2013-08-09 20:20:00,
2013-08-09 16:25:00,71.9,71.9,29.66,SSW,195,0.4,2.0,100,0.00,,,0.92,meteo_script,2013-08-09 20:25:00,
2013-08-09 16:30:00,72.0,72.0,29.66,SSW,194,0.2,1.0,100,0.00,,,0.92,meteo_script,2013-08-09 20:30:00,
2013-08-09 16:35:00,72.1,72.1,29.66,SSW,194,0.1,2.0,100,0.01,,,0.93,meteo_script,2013-08-09 20:35:00,
2013-08-09 16:45:00,72.2,72.2,29.66,North,0,0.1,0.0,100,0.01,,,0.93,meteo_script,2013-08-09 20:45:00,
2013-08-09 16:50:00,72.4,72.4,29.66,SSW,194,0.0,1.0,100,0.02,,,0.94,meteo_script,2013-08-09 20:50:00,
2013-08-09 16:55:00,72.5,72.5,29.66,WSW,254,0.1,3.0,100,0.02,,,0.94,meteo_script,2013-08-09 20:55:00,
2013-08-09 17:05:00,72.6,72.6,29.66,North,0,0.2,3.0,100,0.02,,,0.94,meteo_script,2013-08-09 21:05:00,
2013-08-09 17:10:00,72.7,72.7,29.65,North,0,0.1,2.0,100,0.02,,,0.94,meteo_script,2013-08-09 21:10:00,
2013-08-09 17:20:00,72.8,72.8,29.66,North,0,0.0,0.0,100,0.03,,,0.95,meteo_script,2013-08-09 21:20:00,
2013-08-09 17:25:00,73.0,73.0,29.65,North,0,0.0,1.0,100,0.04,,,0.96,meteo_script,2013-08-09 21:25:00,
2013-08-09 17:35:00,73.3,73.3,29.66,North,0,0.0,0.0,100,0.03,,,0.96,meteo_script,2013-08-09 21:35:00,
2013-08-09 17:40:00,73.4,73.4,29.66,SW,227,0.0,1.0,100,0.03,,,0.96,meteo_script,2013-08-09 21:40:00,
2013-08-09 17:45:00,73.5,73.5,29.65,North,0,0.0,0.0,100,0.03,,,0.96,meteo_script,2013-08-09 21:45:00,
2013-08-09 17:55:00,73.9,73.9,29.65,North,0,0.0,0.0,100,0.02,,,0.96,meteo_script,2013-08-09 21:55:00,
2013-08-09 18:00:00,74.0,74.0,29.65,North,0,0.0,1.0,100,0.02,,,0.96,meteo_script,2013-08-09 22:00:00,
2013-08-09 18:10:00,74.0,74.0,29.65,North,0,0.0,1.0,100,0.02,,,0.96,meteo_script,2013-08-09 22:10:00,
2013-08-09 18:15:00,74.0,74.0,29.65,North,0,0.0,0.0,100,0.02,,,0.96,meteo_script,2013-08-09 22:15:00,
2013-08-09 18:20:00,74.0,74.0,29.66,SW,228,0.0,1.0,100,0.01,,,0.96,meteo_script,2013-08-09 22:20:00,
2013-08-09 18:30:00,74.0,74.0,29.65,SW,227,0.1,1.0,100,0.00,,,0.96,meteo_script,2013-08-09 22:30:00,
2013-08-09 18:35:00,74.0,74.0,29.65,SW,227,0.1,2.0,100,0.00,,,0.96,meteo_script,2013-08-09 22:35:00,
2013-08-09 18:45:00,74.1,74.1,29.65,SW,227,0.2,2.0,100,0.00,,,0.96,meteo_script,2013-08-09 22:45:00,
2013-08-09 18:50:00,74.2,74.2,29.65,SW,227,0.1,2.0,100,0.00,,,0.96,meteo_script,2013-08-09 22:50:00,
2013-08-09 18:55:00,74.2,74.2,29.65,North,0,0.1,1.0,100,0.00,,,0.96,meteo_script,2013-08-09 22:55:00,
2013-08-09 19:00:00,74.1,74.1,29.65,North,0,0.0,1.0,100,0.00,,,0.96,meteo_script,2013-08-09 23:00:00,
2013-08-09 19:10:00,74.0,74.0,29.66,North,0,0.0,1.0,100,0.00,,,0.96,meteo_script,2013-08-09 23:10:00,
2013-08-09 19:20:00,73.9,73.9,29.66,North,0,0.0,0.0,100,0.00,,,0.96,meteo_script,2013-08-09 23:20:00,
2013-08-09 19:25:00,73.8,73.8,29.66,North,0,0.0,0.0,100,0.00,,,0.96,meteo_script,2013-08-09 23:25:00,
2013-08-09 19:35:00,73.7,73.7,29.67,North,0,0.0,0.0,100,0.00,,,0.96,meteo_script,2013-08-09 23:35:00,
2013-08-09 19:40:00,73.7,73.7,29.67,SW,227,0.1,2.0,100,0.00,,,0.96,meteo_script,2013-08-09 23:40:00,
2013-08-09 19:45:00,73.6,73.6,29.67,North,0,0.1,0.0,100,0.00,,,0.96,meteo_script,2013-08-09 23:45:00,
2013-08-09 19:55:00,73.5,73.5,29.67,North,0,0.1,4.0,100,0.00,,,0.96,meteo_script,2013-08-09 23:55:00,
2013-08-09 20:00:00,73.5,73.5,29.67,SW,233,0.2,3.0,100,0.00,,,0.96,meteo_script,2013-08-10 00:00:00,
2013-08-09 20:10:00,73.4,73.4,29.67,SW,233,0.2,3.0,100,0.00,,,0.96,meteo_script,2013-08-10 00:10:00,
2013-08-09 20:15:00,73.3,73.3,29.67,North,0,0.2,1.0,100,0.00,,,0.96,meteo_script,2013-08-10 00:15:00,
2013-08-09 20:25:00,73.1,73.1,29.68,North,0,0.0,1.0,100,0.00,,,0.96,meteo_script,2013-08-10 00:25:00,
2013-08-09 20:30:00,73.0,73.0,29.68,North,0,0.0,0.0,100,0.00,,,0.96,meteo_script,2013-08-10 00:30:00,
2013-08-09 20:35:00,72.8,72.8,29.68,North,0,0.0,0.0,100,0.00,,,0.96,meteo_script,2013-08-10 00:35:00,
2013-08-09 20:45:00,72.7,72.7,29.68,WSW,247,0.0,1.0,100,0.00,,,0.96,meteo_script,2013-08-10 00:45:00,
2013-08-09 20:50:00,72.7,72.7,29.69,North,0,0.0,0.0,100,0.00,,,0.96,meteo_script,2013-08-10 00:50:00,
2013-08-09 20:55:00,72.6,72.6,29.69,North,0,0.0,0.0,100,0.00,,,0.96,meteo_script,2013-08-10 00:55:00,
2013-08-09 21:05:00,72.4,72.4,29.69,North,0,0.0,0.0,100,0.00,,,0.96,meteo_script,2013-08-10 01:05:00,
2013-08-09 21:10:00,72.5,72.5,29.69,WNW,303,0.0,1.0,100,0.00,,,0.96,meteo_script,2013-08-10 01:10:00,
2013-08-09 21:20:00,72.4,72.4,29.69,North,0,0.0,1.0,100,0.00,,,0.96,meteo_script,2013-08-10 01:20:00,
2013-08-09 21:25:00,72.3,72.3,29.69,North,0,0.0,0.0,100,0.00,,,0.96,meteo_script,2013-08-10 01:25:00,
2013-08-09 21:30:00,72.3,72.3,29.69,North,0,0.0,0.0,100,0.00,,,0.96,meteo_script,2013-08-10 01:30:00,
2013-08-09 21:40:00,72.3,72.3,29.69,North,0,0.0,0.0,100,0.00,,,0.96,meteo_script,2013-08-10 01:40:00,
2013-08-09 21:45:00,72.2,72.2,29.69,North,0,0.0,0.0,100,0.00,,,0.96,meteo_script,2013-08-10 01:45:00,
2013-08-09 21:55:00,72.1,72.1,29.69,North,0,0.0,0.0,100,0.00,,,0.96,meteo_script,2013-08-10 01:55:00,
2013-08-09 22:00:00,72.0,72.0,29.69,North,0,0.0,0.0,100,0.00,,,0.96,meteo_script,2013-08-10 02:00:00,
2013-08-09 22:05:00,71.9,71.9,29.69,North,0,0.0,0.0,100,0.00,,,0.96,meteo_script,2013-08-10 02:05:00,
2013-08-09 22:15:00,71.8,71.8,29.68,North,0,0.0,0.0,100,0.00,,,0.96,meteo_script,2013-08-10 02:15:00,
2013-08-09 22:20:00,71.8,71.8,29.69,North,0,0.0,0.0,100,0.00,,,0.96,meteo_script,2013-08-10 02:20:00,
2013-08-09 22:30:00,71.8,71.8,29.69,North,0,0.0,0.0,100,0.00,,,0.96,meteo_script,2013-08-10 02:30:00,
2013-08-09 22:35:00,71.8,71.8,29.69,North,0,0.0,0.0,100,0.00,,,0.96,meteo_script,2013-08-10 02:35:00,
2013-08-09 22:40:00,71.7,71.7,29.69,North,0,0.0,0.0,100,0.00,,,0.96,meteo_script,2013-08-10 02:40:00,
2013-08-09 22:50:00,71.6,71.5,29.69,North,0,0.0,0.0,100,0.00,,,0.96,meteo_script,2013-08-10 02:50:00,
2013-08-09 22:55:00,71.4,71.4,29.69,North,0,0.0,0.0,100,0.00,,,0.96,meteo_script,2013-08-10 02:55:00,
2013-08-09 23:05:00,71.2,71.2,29.70,North,0,0.0,0.0,100,0.00,,,0.96,meteo_script,2013-08-10 03:05:00,
2013-08-09 23:10:00,71.2,71.2,29.69,North,0,0.0,0.0,100,0.00,,,0.96,meteo_script,2013-08-10 03:10:00,
2013-08-09 23:15:00,71.2,71.2,29.69,North,0,0.0,0.0,100,0.00,,,0.96,meteo_script,2013-08-10 03:15:00,
2013-08-09 23:25:00,71.1,71.1,29.69,North,0,0.0,0.0,100,0.00,,,0.96,meteo_script,2013-08-10 03:25:00,
2013-08-09 23:30:00,71.2,71.2,29.69,North,0,0.0,0.0,100,0.00,,,0.96,meteo_script,2013-08-10 03:30:00,
2013-08-09 23:35:00,71.0,71.0,29.69,North,0,0.1,2.0,100,0.00,,,0.96,meteo_script,2013-08-10 03:35:00,
2013-08-09 23:45:00,70.9,70.9,29.70,North,0,0.0,0.0,100,0.00,,,0.96,meteo_script,2013-08-10 03:45:00,
2013-08-09 23:50:00,70.9,70.9,29.69,North,0,0.0,0.0,100,0.00,,,0.96,meteo_script,2013-08-10 03:50:00,